Overview Statistics Trail Chart Weather Telemetry Raw packets
 

This is the latest recevied weather packets stored in our database for station/object GBTWP-2. If no packets are shown the sender has not sent any weather packets the latest 10 day(s).

<< 55 56 57 58 59 60 61 >>
Time Temp. Humidity Pressure Rain* Wind** Luminosity Snow
1788305820 29.44° C 76% 1016.8 hPa 0 mm - 22 W/m² -
1788305519 29.44° C 75% 1017 hPa 0 mm - 21 W/m² -
1788305219 30° C 74% 1017.1 hPa 0 mm - 25 W/m² -
1788304919 30° C 73% 1017.1 hPa 0 mm - 24 W/m² -
1788304620 30° C 72% 1017.1 hPa 0 mm - 25 W/m² -
1788304319 30.56° C 72% 1017.1 hPa 0 mm - 27 W/m² -
1788304020 30.56° C 70% 1017.2 hPa 0 mm - 47 W/m² -
1788303719 30.56° C 70% 1016.9 hPa 0 mm - 45 W/m² -
1788303420 30.56° C 70% 1017.2 hPa 0 mm - 47 W/m² -
1788303137 30.56° C 70% 1017.1 hPa 0 mm - 45 W/m² -
1788302819 31.11° C 68% 1017 hPa 0 mm - 43 W/m² -
1788302519 31.11° C 67% 1016.8 hPa 0 mm - 61 W/m² -
1788302219 31.11° C 68% 1016.9 hPa 0 mm - 87 W/m² -
1788301919 31.11° C 68% 1016.8 hPa 0 mm - 70 W/m² -
1788301618 30.56° C 69% 1016.8 hPa 0 mm - 73 W/m² -
1788301318 30.56° C 69% 1016.8 hPa 0 mm - 78 W/m² -
1788301019 31.11° C 68% 1016.8 hPa 0 mm - 75 W/m² -
1788300719 31.11° C 68% 1016.7 hPa 0 mm - 70 W/m² -
1788300419 31.11° C 66% 1016.7 hPa 0 mm - 83 W/m² -
1788300119 31.11° C 66% 1016.7 hPa 0 mm - 114 W/m² -
1788299820 31.11° C 68% 1016.7 hPa 0 mm - 64 W/m² -
1788299518 31.11° C 67% 1016.5 hPa 0 mm - 64 W/m² -
1788299218 31.11° C 66% 1016.5 hPa 0 mm - 73 W/m² -
1788298920 31.11° C 67% 1016.6 hPa 0 mm - 106 W/m² -
1788298620 31.11° C 66% 1016.5 hPa 0 mm - 105 W/m² -

* Rain latest hour (hover to see other rain measurements)
** Current wind speed in m/s (hover to see current wind gust speed)